Tracking 17784 objects as of 23-July-2016
HD Live streaming from Space Station
objects crossing your sky now

PSLV DEB

Track PSLV DEB now!
10-day predictions


NORAD ID: 27114
Int'l Code: 2001-049BJ
Perigee: 409.3 km
Apogee: 417.8 km
Inclination: 97.8 °
Period: 92.7 minutes
Semi major axis: 6784 km
RCS: 0.0473 m2 (small)
Launch date: October 22, 2001
Source: India (IND)
Launch site: SIRHARIKOTA (SRI)

Note: This is SATELLITE DEBRIS
Your satellite tracking list
Your tracking list is empty





NASA's NSSDC Master Catalog

Two Line Element Set (TLE):
1 27114U 01049BJ  16204.92672280 +.00034328 +00000-0 +53955-3 0  9998
2 27114 097.8331 214.8655 0006287 346.4721 013.6361 15.53544960794337
Source of the keplerian elements: AFSPC

N2YO: 859